Powrót do katalogu

CZ-2D Y92 STAGE 2

AktywnyPO
NORAD 65946·ROCKET BODY·🇨🇳 China
Ta nazwa satelity nie została jeszcze potwierdzona przez oficjalne źródła.

Wystrzelony Oct 13, 2025 z Jiuquan Satellite Launch Center

Loading…

Następne Przeloty (najbliższe 24 godziny)

TLE

ŚwieżeSource: Space-Track

Epoka: Sep 14, 2026, 14:45 UTC

1 65946U 25227B   26257.61505635  .00007482  00000-0  23038-3 0  9991
2 65946  80.1557  17.0210 0018381   4.4532 355.6862 15.33343554 51432

Śledź CZ-2D Y92 STAGE 2 w czasie rzeczywistym z AllMySat

Download on the App Store